Location: Mountain Grove
(34.0887°N, 86.6172°W)
Time: 21:12:28
(UTC+00:00)

Alouette 2 Rocket - Pass Details

Date: 14 July 2020
Orbit: 502 x 2650 km, 79.8° (Epoch: 08 August)

Event Time Altitude Azimuth Distance (km) Brightness Sun altitude
Rises 02:07:07 0° 351° (N) 3,002 7.8 -12.7°
Reaches altitude 10° 02:09:01 10° 353° (N) 2,238 7.1 -13.0°
Maximum altitude 02:13:58 81° 80° (E) 973 4.4 -13.8°
Drops below altitude 10° 02:21:46 10° 169° (S) 3,459 6.9 -15.1°
Enters shadow 02:22:02 - 169° (S) 3,564 7.0 -15.1°
